Find Starlink 35601

NORAD ID: 66149 Int'l Des: 2025-240 Owner: SPXS Country: US Constellation: starlink operational
LEOCIRCULAR

現在のビュー

3D地球を読み込み中...

Starlink 35601について

説明を読み込み中...

次回通過

Passes for default location (London). Set your location on the main map for personalized predictions.

高度履歴

Loading altitude history...

軌道要素

1 66149U 25240D 26146.18085846 .00037869 00000-0 12841-2 0 9999
2 66149 53.1588 62.8093 0001140 100.6115 259.5014 15.30203742 33858
Epoch: May 26, 2026 • Age: 9 hours

現在のステータス

高度 477.4 km
速度 7.63 km/s
衛星直下点 -6.62°S, 33.76°W
打ち上げ日 Oct 25, 2025
運用期間 0.5 years
タイプ internet

技術仕様

分類 Payload
質量 575.00 kg
乾燥質量 530.00 kg
総質量 575.00 kg
長さ 0.30 m
直径 4.10 m
スパン 29.00 m
形状 Box + pan
製造者 SPXS
バスタイプ Starlink V2MO
フェーズステータス In Orbit
所有者/国 SPXS/US

Most Searched